Location: *
(49.5667°N, 1.3667°W)
Time: 07:09:35
(UTC+00:00)

Cosmos 1805 - Pass Details

Date: 20 September 2019
Orbit: 525 x 532 km, 82.5° (Epoch: 21 October)

Event Time Altitude Azimuth Distance (km) Brightness Sun altitude
Exits shadow 19:31:00 23° 89° (E) 1,169 4.4 -13.9°
Maximum altitude 19:31:03 23° 88° (E) 1,169 4.4 -13.9°
Drops below altitude 10° 19:34:08 10° 36° (NE) 1,783 5.7 -14.4°
Sets 19:36:36 0° 22° (NNE) 2,677 6.8 -14.8°
